グレーラー彗星

P/2019 B2 ( Groeller )

English version
Home page
Updated on June 8, 2019

---------------------------------------------------------------------

・ プロフィール

発見日 2019年1月26日
発見光度 18.0等
発見者 H. Groeller (Catalina Sky Survey)

・ 写真集

・ 軌道要素

Epoch 2019 June 6.0 TT = JDT 2458640.5
T 2019 June 8.04250 TT                                  MPCW
q   2.4164187            (2000.0)            P               Q
n   0.13034726     Peri.  358.71415     -0.99651505     -0.08147573
a   3.8524301      Node   176.46049     +0.07888182     -0.99015520
e   0.3727547      Incl.   16.82854     +0.02711844     -0.11381735
P   7.56
From 171 observations 2019 Jan. 4-June 1, mean residual 0".9.

・ 光度変化

        m1 = 13.5 + 5 logΔ + 10.0 log r

---------------------------------------------------------------------

軌道要素はM.P.E.C. 2019-L24に掲載されたものです。
光度グラフはComet for Windowsで作成したものです。

---------------------------------------------------------------------

Copyright(C) Seiichi Yoshida (comet@aerith.net). All rights reserved.